Location: Bernadets
(43.3537°N, 0.3167°E)
Time: 13:09:58
(UTC+00:00)

Cosmos 1892 - Pass Details

Date: 24 October 2021
Orbit: 501 x 522 km, 82.5° (Epoch: 07 December)

Event Time Altitude Azimuth Distance (km) Brightness Sun altitude
Rises 18:46:35 0° 351° (N) 2,615 6.4 -19.8°
Reaches altitude 10° 18:48:43 10° 352° (N) 1,723 5.5 -20.2°
Maximum altitude 18:52:29 89° 79° (E) 509 2.5 -20.8°
Enters shadow 18:53:45 40° 172° (S) 747 3.3 -21.1°
